Mexicali, Mexico

4:54 PM PDT on March 30, 2017 (GMT -0700)
Gen Rodolfo Sanchez Taboada

Weather History for MMML - November, 2012

Change the Weather History Date:

Thursday, November 22, 2012

  Actual Average Record
Temperature  
Mean Temperature 65 °F -  
Max Temperature 80 °F 69 °F 102 °F (2008)
Min Temperature 50 °F 43 °F 39 °F (2000)
Growing Degree Days 15 (Base 50)    
Moisture  
Dew Point 36 °F    
Average Humidity 35    
Maximum Humidity 54    
Minimum Humidity 18    
Precipitation  
Precipitation 0.00 in - - ()
Sea Level Pressure  
Sea Level Pressure 30.07 in    
Wind  
Wind Speed 1 mph ()    
Max Wind Speed 8 mph    
Max Gust Speed -    
Visibility 10.0 miles    
Events      
Averages and records for this station are not official NWS values.
T = Trace of Precipitation, MM = Missing Value Source: Averaged Metar Reports

Daily Weather History Graph

Daily Weather History Graph

Search for Another Location

Airport or City:

Trip Planner

Search our weather history database for the weather conditions in past years. The results will help you decide how hot, cold, wet, or windy it might be!

Date:

Astronomy

Nov. 22, 2012 Rise Set
Actual Time 6:17 AM PST 4:36 PM PST
Civil Twilight 5:51 AM PST 5:03 PM PST
Nautical Twilight 5:21 AM PST 5:33 PM PST
Astronomical Twilight 4:51 AM PST 6:02 PM PST
Moon 1:09 PM PST (11/22) 12:58 AM PST (11/22)
Length of Visible Light 11h 11m
Length of Day
10h 18m
Waxing Gibbous, 72% of the Moon is Illuminated
Nov 22
Waxing Gibbous
Nov 28
Full
Dec 6
Last Quarter
Dec 13
New
Dec 19
First Quarter

Hourly Weather History & Observations

Time (PST) Temp. Dew Point Humidity Pressure Visibility Wind Dir Wind Speed Gust Speed Precip Events Conditions
12:51 AM 53.6 °F 33.8 °F 47% 29.99 in 10.0 mi Calm Calm - N/A   Clear
4:48 AM 50.0 °F 33.8 °F 54% 29.99 in 10.0 mi Calm Calm - N/A   Clear
5:45 AM 50.0 °F 32.0 °F 50% 30.02 in 10.0 mi Calm Calm - N/A   Clear
6:44 AM 51.8 °F 35.6 °F 54% 30.12 in 10.0 mi Calm Calm - N/A   Clear
7:33 AM 57.2 °F 35.6 °F 44% 30.07 in 10.0 mi Calm Calm - N/A   Clear
7:47 AM 57.2 °F 37.4 °F 48% 30.07 in 10.0 mi Calm Calm - N/A   Clear
8:21 AM 64.4 °F 37.4 °F 37% 30.09 in 10.0 mi Calm Calm - N/A   Clear
8:48 AM 68.0 °F 35.6 °F 30% 30.09 in 10.0 mi Calm Calm - N/A   Clear
9:42 AM 71.6 °F 37.4 °F 29% 30.10 in 10.0 mi Calm Calm - N/A   Partly Cloudy
10:46 AM 75.2 °F 39.2 °F 27% 30.09 in 10.0 mi Calm Calm - N/A   Partly Cloudy
11:45 AM 78.8 °F 37.4 °F 23% 30.06 in 10.0 mi Calm Calm - N/A   Partly Cloudy
12:43 PM 78.8 °F 35.6 °F 21% 30.05 in 10.0 mi Calm Calm - N/A   Scattered Clouds
1:44 PM 80.6 °F 33.8 °F 18% 30.03 in 10.0 mi Calm Calm - N/A   Scattered Clouds
2:49 PM 80.6 °F 33.8 °F 18% 30.02 in 10.0 mi Calm Calm - N/A   Scattered Clouds
3:48 PM 80.6 °F 37.4 °F 21% 30.05 in 10.0 mi Calm Calm - N/A   Partly Cloudy
4:50 PM 75.2 °F 37.4 °F 25% 30.04 in 10.0 mi West 5.8 mph - N/A   Clear
5:48 PM 71.6 °F 35.6 °F 27% 30.05 in 10.0 mi West 5.8 mph - N/A   Clear
6:45 PM 68.0 °F 37.4 °F 33% 30.09 in 10.0 mi Calm Calm - N/A   Clear
7:49 PM 66.2 °F 37.4 °F 35% 30.08 in 10.0 mi WNW 5.8 mph - N/A   Clear
8:51 PM 62.6 °F 39.2 °F 42% 30.09 in 10.0 mi West 5.8 mph - N/A   Clear
9:54 PM 60.8 °F 37.4 °F 42% 30.12 in 10.0 mi NW 8.1 mph - N/A   Clear
10:47 PM 60.8 °F 37.4 °F 42% 30.10 in 10.0 mi North 8.1 mph - N/A   Clear
11:46 PM 59.0 °F 37.4 °F 45% 30.10 in 10.0 mi WNW 6.9 mph - N/A   Clear